Year,Month,Day,Hour,Minute,Value (Times are PST for temperature in C)
2018,08,08,00,00,22.20
2018,08,08,00,01,22.20
2018,08,08,00,02,22.20
2018,08,08,00,03,22.30
2018,08,08,00,04,22.40
2018,08,08,00,05,22.40
2018,08,08,00,06,22.50
2018,08,08,00,07,22.60
2018,08,08,00,08,22.70
2018,08,08,00,09,22.80
2018,08,08,00,10,22.90
2018,08,08,00,11,23.10
2018,08,08,00,12,23.30
2018,08,08,00,13,23.40
2018,08,08,00,14,23.60
2018,08,08,00,15,23.70
2018,08,08,00,16,23.70
2018,08,08,00,17,23.80
2018,08,08,00,18,23.90
2018,08,08,00,19,23.90
2018,08,08,00,20,23.90
2018,08,08,00,21,24.00
2018,08,08,00,22,23.90
2018,08,08,00,23,23.90
2018,08,08,00,24,23.90
2018,08,08,00,25,23.90
2018,08,08,00,26,24.00
2018,08,08,00,27,24.00
2018,08,08,00,28,24.00
2018,08,08,00,29,24.10
2018,08,08,00,30,24.10
2018,08,08,00,31,24.20
2018,08,08,00,32,24.20
2018,08,08,00,33,24.20
2018,08,08,00,34,24.30
2018,08,08,00,35,24.40
2018,08,08,00,36,24.50
2018,08,08,00,37,24.60
2018,08,08,00,38,24.70
2018,08,08,00,39,24.80
2018,08,08,00,40,25.00
2018,08,08,00,41,25.10
2018,08,08,00,42,25.10
2018,08,08,00,43,25.20
2018,08,08,00,44,25.20
2018,08,08,00,45,25.20
2018,08,08,00,46,25.20
2018,08,08,00,47,25.30
2018,08,08,00,48,25.40
2018,08,08,00,49,25.40
2018,08,08,00,50,25.50
2018,08,08,00,51,25.60
2018,08,08,00,52,25.60
2018,08,08,00,53,25.60
2018,08,08,00,54,25.60
2018,08,08,00,55,25.70
2018,08,08,00,56,25.70
2018,08,08,00,57,25.70
2018,08,08,00,58,25.70
2018,08,08,00,59,25.60
2018,08,08,01,00,25.40
2018,08,08,01,01,25.30
2018,08,08,01,02,25.10
2018,08,08,01,03,24.80
2018,08,08,01,04,24.60
2018,08,08,01,05,24.30
2018,08,08,01,06,24.10
2018,08,08,01,07,23.90
2018,08,08,01,08,23.80
2018,08,08,01,09,23.60
2018,08,08,01,10,23.40
2018,08,08,01,11,23.20
2018,08,08,01,12,23.00
2018,08,08,01,13,22.80
2018,08,08,01,14,22.60
2018,08,08,01,15,22.40
2018,08,08,01,16,22.30
2018,08,08,01,17,22.10
2018,08,08,01,18,22.00
2018,08,08,01,19,21.90
2018,08,08,01,20,21.80
2018,08,08,01,21,21.70
2018,08,08,01,22,21.60
2018,08,08,01,23,21.60
2018,08,08,01,24,21.60
2018,08,08,01,25,21.50
2018,08,08,01,26,21.50
2018,08,08,01,27,21.50
2018,08,08,01,28,21.60
2018,08,08,01,29,21.60
2018,08,08,01,30,21.60
2018,08,08,01,31,21.70
2018,08,08,01,32,21.70
2018,08,08,01,33,21.70
2018,08,08,01,34,21.70
2018,08,08,01,35,21.70
2018,08,08,01,36,21.70
2018,08,08,01,37,21.60
2018,08,08,01,38,21.60
2018,08,08,01,39,21.50
2018,08,08,01,40,21.50
2018,08,08,01,41,21.40
2018,08,08,01,42,21.40
2018,08,08,01,43,21.30
2018,08,08,01,44,21.30
2018,08,08,01,45,21.30
2018,08,08,01,46,21.30
2018,08,08,01,47,21.30
2018,08,08,01,48,21.30
2018,08,08,01,49,21.30
2018,08,08,01,50,21.30
2018,08,08,01,51,21.30
2018,08,08,01,52,21.30
2018,08,08,01,53,21.30
2018,08,08,01,54,21.30
2018,08,08,01,55,21.30
2018,08,08,01,56,21.30
2018,08,08,01,57,21.20
2018,08,08,01,58,21.20
2018,08,08,01,59,21.20
2018,08,08,02,00,21.20
2018,08,08,02,01,21.20
2018,08,08,02,02,21.20
2018,08,08,02,03,21.30
2018,08,08,02,04,21.40
2018,08,08,02,05,21.50
2018,08,08,02,06,21.60
2018,08,08,02,07,21.60
2018,08,08,02,08,21.60
2018,08,08,02,09,21.60
2018,08,08,02,10,21.60
2018,08,08,02,11,21.70
2018,08,08,02,12,21.70
2018,08,08,02,13,21.80
2018,08,08,02,14,21.80
2018,08,08,02,15,21.80
2018,08,08,02,16,21.80
2018,08,08,02,17,21.80
2018,08,08,02,18,21.70
2018,08,08,02,19,21.60
2018,08,08,02,20,21.50
2018,08,08,02,21,21.40
2018,08,08,02,22,21.30
2018,08,08,02,23,21.20
2018,08,08,02,24,21.20
2018,08,08,02,25,21.20
2018,08,08,02,26,21.30
2018,08,08,02,27,21.40
2018,08,08,02,28,21.50
2018,08,08,02,29,21.60
2018,08,08,02,30,21.70
2018,08,08,02,31,21.80
2018,08,08,02,32,21.80
2018,08,08,02,33,21.80
2018,08,08,02,34,21.90
2018,08,08,02,35,21.90
2018,08,08,02,36,21.80
2018,08,08,02,37,21.70
2018,08,08,02,38,21.60
2018,08,08,02,39,21.50
2018,08,08,02,40,21.30
2018,08,08,02,41,21.20
2018,08,08,02,42,21.00
2018,08,08,02,43,20.90
2018,08,08,02,44,20.80
2018,08,08,02,45,20.70
2018,08,08,02,46,20.60
2018,08,08,02,47,20.50
2018,08,08,02,48,20.40
2018,08,08,02,49,20.30
2018,08,08,02,50,20.20
2018,08,08,02,51,20.20
2018,08,08,02,52,20.10
2018,08,08,02,53,20.10
2018,08,08,02,54,20.10
2018,08,08,02,55,20.00
2018,08,08,02,56,20.00
2018,08,08,02,57,20.00
2018,08,08,02,58,20.00
2018,08,08,02,59,20.00
2018,08,08,03,00,20.00
2018,08,08,03,01,20.00
2018,08,08,03,02,20.10
2018,08,08,03,03,20.10
2018,08,08,03,04,20.10
2018,08,08,03,05,20.10
2018,08,08,03,06,20.10
2018,08,08,03,07,20.20
2018,08,08,03,08,20.20
2018,08,08,03,09,20.20
2018,08,08,03,10,20.20
2018,08,08,03,11,20.20
2018,08,08,03,12,20.10
2018,08,08,03,13,20.10
2018,08,08,03,14,20.10
2018,08,08,03,15,20.10
2018,08,08,03,16,20.10
2018,08,08,03,17,20.10
2018,08,08,03,18,20.10
2018,08,08,03,19,20.10
2018,08,08,03,20,20.10
2018,08,08,03,21,20.10
2018,08,08,03,22,20.00
2018,08,08,03,23,20.00
2018,08,08,03,24,20.00
2018,08,08,03,25,20.00
2018,08,08,03,26,19.90
2018,08,08,03,27,19.90
2018,08,08,03,28,19.90
2018,08,08,03,29,19.80
2018,08,08,03,30,19.80
2018,08,08,03,31,19.80
2018,08,08,03,32,19.80
2018,08,08,03,33,19.80
2018,08,08,03,34,19.80
2018,08,08,03,35,19.80
2018,08,08,03,36,19.80
2018,08,08,03,37,19.80
2018,08,08,03,38,19.80
2018,08,08,03,39,19.80
2018,08,08,03,40,19.80
2018,08,08,03,41,19.80
2018,08,08,03,42,19.80
2018,08,08,03,43,19.80
2018,08,08,03,44,19.80
2018,08,08,03,45,19.80
2018,08,08,03,46,19.80
2018,08,08,03,47,19.80
2018,08,08,03,48,19.80
2018,08,08,03,49,19.80
2018,08,08,03,50,19.80
2018,08,08,03,51,19.80
2018,08,08,03,52,19.80
2018,08,08,03,53,19.80
2018,08,08,03,54,19.80
2018,08,08,03,55,19.80
2018,08,08,03,56,19.80
2018,08,08,03,57,19.80
2018,08,08,03,58,19.80
2018,08,08,03,59,19.80
2018,08,08,04,00,19.80
2018,08,08,04,01,19.80
2018,08,08,04,02,19.80
2018,08,08,04,03,19.70
2018,08,08,04,04,19.80
2018,08,08,04,05,19.80
2018,08,08,04,06,19.80
2018,08,08,04,07,19.80
2018,08,08,04,08,19.80
2018,08,08,04,09,19.90
2018,08,08,04,10,20.00
2018,08,08,04,11,20.00
2018,08,08,04,12,20.20
2018,08,08,04,13,20.20
2018,08,08,04,14,20.20
2018,08,08,04,15,20.20
2018,08,08,04,16,20.10
2018,08,08,04,17,20.00
2018,08,08,04,18,20.00
2018,08,08,04,19,19.90
2018,08,08,04,20,20.00
2018,08,08,04,21,20.00
2018,08,08,04,22,19.90
2018,08,08,04,23,19.90
2018,08,08,04,24,20.00
2018,08,08,04,25,20.00
2018,08,08,04,26,20.10
2018,08,08,04,27,20.20
2018,08,08,04,28,20.20
2018,08,08,04,29,20.20
2018,08,08,04,30,20.10
2018,08,08,04,31,20.10
2018,08,08,04,32,20.10
2018,08,08,04,33,20.10
2018,08,08,04,34,20.00
2018,08,08,04,35,20.00
2018,08,08,04,36,20.00
2018,08,08,04,37,20.00
2018,08,08,04,38,20.00
2018,08,08,04,39,19.90
2018,08,08,04,40,19.90
2018,08,08,04,41,19.80
2018,08,08,04,42,19.80
2018,08,08,04,43,19.80
2018,08,08,04,44,19.80
2018,08,08,04,45,19.80
2018,08,08,04,46,19.80
2018,08,08,04,47,19.80
2018,08,08,04,48,19.80
2018,08,08,04,49,19.70
2018,08,08,04,50,19.70
2018,08,08,04,51,19.60
2018,08,08,04,52,19.50
2018,08,08,04,53,19.50
2018,08,08,04,54,19.40
2018,08,08,04,55,19.30
2018,08,08,04,56,19.30
2018,08,08,04,57,19.30
2018,08,08,04,58,19.20
2018,08,08,04,59,19.20
2018,08,08,05,00,19.20
2018,08,08,05,01,19.20
2018,08,08,05,02,19.20
2018,08,08,05,03,19.20
2018,08,08,05,04,19.10
2018,08,08,05,05,19.10
2018,08,08,05,06,19.10
2018,08,08,05,07,19.10
2018,08,08,05,08,19.10
2018,08,08,05,09,19.10
2018,08,08,05,10,19.10
2018,08,08,05,11,19.00
2018,08,08,05,12,19.00
2018,08,08,05,13,19.00
2018,08,08,05,14,19.00
2018,08,08,05,15,19.00
2018,08,08,05,16,19.00
2018,08,08,05,17,19.00
2018,08,08,05,18,19.00
2018,08,08,05,19,19.00
2018,08,08,05,20,19.00
2018,08,08,05,21,19.10
2018,08,08,05,22,19.10
2018,08,08,05,23,19.10
2018,08,08,05,24,19.10
2018,08,08,05,25,19.10
2018,08,08,05,26,19.00
2018,08,08,05,27,19.00
2018,08,08,05,28,19.00
2018,08,08,05,29,18.90
2018,08,08,05,30,18.90
2018,08,08,05,31,18.90
2018,08,08,05,32,18.90
2018,08,08,05,33,18.80
2018,08,08,05,34,18.80
2018,08,08,05,35,18.80
2018,08,08,05,36,18.80
2018,08,08,05,37,18.80
2018,08,08,05,38,18.90
2018,08,08,05,39,18.90
2018,08,08,05,40,19.00
2018,08,08,05,41,19.00
2018,08,08,05,42,19.10
2018,08,08,05,43,19.10
2018,08,08,05,44,19.10
2018,08,08,05,45,19.10
2018,08,08,05,46,19.20
2018,08,08,05,47,19.20
2018,08,08,05,48,19.20
2018,08,08,05,49,19.20
2018,08,08,05,50,19.20
2018,08,08,05,51,19.20
2018,08,08,05,52,19.20
2018,08,08,05,53,19.20
2018,08,08,05,54,19.10
2018,08,08,05,55,19.10
2018,08,08,05,56,19.10
2018,08,08,05,57,19.10
2018,08,08,05,58,19.10
2018,08,08,05,59,19.10
2018,08,08,06,00,19.10
2018,08,08,06,01,19.10
2018,08,08,06,02,19.10
2018,08,08,06,03,19.10
2018,08,08,06,04,19.10
2018,08,08,06,05,19.00
2018,08,08,06,06,19.00
2018,08,08,06,07,19.00
2018,08,08,06,08,19.00
2018,08,08,06,09,18.90
2018,08,08,06,10,18.90
2018,08,08,06,11,19.00
2018,08,08,06,12,19.00
2018,08,08,06,13,19.00
2018,08,08,06,14,19.00
2018,08,08,06,15,19.00
2018,08,08,06,16,19.00
2018,08,08,06,17,19.00
2018,08,08,06,18,18.90
2018,08,08,06,19,18.90
2018,08,08,06,20,18.80
2018,08,08,06,21,18.80
2018,08,08,06,22,18.70
2018,08,08,06,23,18.70
2018,08,08,06,24,18.70
2018,08,08,06,25,18.60
2018,08,08,06,26,18.60
2018,08,08,06,27,18.60
2018,08,08,06,28,18.70
2018,08,08,06,29,18.70
2018,08,08,06,30,18.70
2018,08,08,06,31,18.80
2018,08,08,06,32,18.90
2018,08,08,06,33,19.00
2018,08,08,06,34,19.10
2018,08,08,06,35,19.30
2018,08,08,06,36,19.40
2018,08,08,06,37,19.50
2018,08,08,06,38,19.60
2018,08,08,06,39,19.80
2018,08,08,06,40,19.80
2018,08,08,06,41,19.90
2018,08,08,06,42,19.90
2018,08,08,06,43,19.90
2018,08,08,06,44,19.90
2018,08,08,06,45,19.90
2018,08,08,06,46,19.90
2018,08,08,06,47,19.90
2018,08,08,06,48,19.90
2018,08,08,06,49,19.90
2018,08,08,06,50,20.00
2018,08,08,06,51,20.00
2018,08,08,06,52,20.10
2018,08,08,06,53,20.10
2018,08,08,06,54,20.20
2018,08,08,06,55,20.20
2018,08,08,06,56,20.30
2018,08,08,06,57,20.40
2018,08,08,06,58,20.40
2018,08,08,06,59,20.50
2018,08,08,07,00,20.50
2018,08,08,07,01,20.60
2018,08,08,07,02,20.70
2018,08,08,07,03,20.70
2018,08,08,07,04,20.60
2018,08,08,07,05,20.60
2018,08,08,07,06,20.60
2018,08,08,07,07,20.60
2018,08,08,07,08,20.60
2018,08,08,07,09,20.60
2018,08,08,07,10,20.70
2018,08,08,07,11,20.70
2018,08,08,07,12,20.80
2018,08,08,07,13,20.90
2018,08,08,07,14,21.00
2018,08,08,07,15,21.10
2018,08,08,07,16,21.20
2018,08,08,07,17,21.30
2018,08,08,07,18,21.40
2018,08,08,07,19,21.50
2018,08,08,07,20,21.60
2018,08,08,07,21,21.70
2018,08,08,07,22,21.80
2018,08,08,07,23,21.80
2018,08,08,07,24,21.90
2018,08,08,07,25,22.00
2018,08,08,07,26,22.10
2018,08,08,07,27,22.20
2018,08,08,07,28,22.30
2018,08,08,07,29,22.40
2018,08,08,07,30,22.50
2018,08,08,07,31,22.50
2018,08,08,07,32,22.60
2018,08,08,07,33,22.70
2018,08,08,07,34,22.70
2018,08,08,07,35,22.80
2018,08,08,07,36,22.80
2018,08,08,07,37,22.90
2018,08,08,07,38,23.00
2018,08,08,07,39,23.00
2018,08,08,07,40,23.10
2018,08,08,07,41,23.10
2018,08,08,07,42,23.20
2018,08,08,07,43,23.20
2018,08,08,07,44,23.30
2018,08,08,07,45,23.30
2018,08,08,07,46,23.30
2018,08,08,07,47,23.40
2018,08,08,07,48,23.40
2018,08,08,07,49,23.40
2018,08,08,07,50,23.50
2018,08,08,07,51,23.50
2018,08,08,07,52,23.60
2018,08,08,07,53,23.60
2018,08,08,07,54,23.60
2018,08,08,07,55,23.60
2018,08,08,07,56,23.70
2018,08,08,07,57,23.70
2018,08,08,07,58,23.80
2018,08,08,07,59,23.80
2018,08,08,08,00,23.90
2018,08,08,08,01,23.90
2018,08,08,08,02,23.90
2018,08,08,08,03,24.00
2018,08,08,08,04,24.00
2018,08,08,08,05,24.00
2018,08,08,08,06,24.00
2018,08,08,08,07,24.00
2018,08,08,08,08,24.10
2018,08,08,08,09,24.00
2018,08,08,08,10,24.00
2018,08,08,08,11,24.00
2018,08,08,08,12,23.90
2018,08,08,08,13,23.90
2018,08,08,08,14,23.90
2018,08,08,08,15,23.90
2018,08,08,08,16,23.90
2018,08,08,08,17,23.80
2018,08,08,08,18,23.80
2018,08,08,08,19,23.80
2018,08,08,08,20,23.70
2018,08,08,08,21,23.70
2018,08,08,08,22,23.80
2018,08,08,08,23,23.80
2018,08,08,08,24,23.80
2018,08,08,08,25,23.80
2018,08,08,08,26,23.90
2018,08,08,08,27,23.90
2018,08,08,08,28,24.00
2018,08,08,08,29,24.10
2018,08,08,08,30,24.10
2018,08,08,08,31,24.10
2018,08,08,08,32,24.20
2018,08,08,08,33,24.20
2018,08,08,08,34,24.20
2018,08,08,08,35,24.30
2018,08,08,08,36,24.30
2018,08,08,08,37,24.40
2018,08,08,08,38,24.40
2018,08,08,08,39,24.50
2018,08,08,08,40,24.50
2018,08,08,08,41,24.60
2018,08,08,08,42,24.60
2018,08,08,08,43,24.70
2018,08,08,08,44,24.80
2018,08,08,08,45,24.80
2018,08,08,08,46,24.90
2018,08,08,08,47,25.00
2018,08,08,08,48,25.10
2018,08,08,08,49,25.10
2018,08,08,08,50,25.20
2018,08,08,08,51,25.20
2018,08,08,08,52,25.30
2018,08,08,08,53,25.30
2018,08,08,08,54,25.40
2018,08,08,08,55,25.50
2018,08,08,08,56,25.50
2018,08,08,08,57,25.60
2018,08,08,08,58,25.70
2018,08,08,08,59,25.70
2018,08,08,09,00,25.70
2018,08,08,09,01,25.70
2018,08,08,09,02,25.70
2018,08,08,09,03,25.70
2018,08,08,09,04,25.80
2018,08,08,09,05,25.80
2018,08,08,09,06,25.70
2018,08,08,09,07,25.60
2018,08,08,09,08,25.50
2018,08,08,09,09,25.40
2018,08,08,09,10,25.40
2018,08,08,09,11,25.40
2018,08,08,09,12,25.40
2018,08,08,09,13,25.40
2018,08,08,09,14,25.40
2018,08,08,09,15,25.40
2018,08,08,09,16,25.40
2018,08,08,09,17,25.50
2018,08,08,09,18,25.50
2018,08,08,09,19,25.50
2018,08,08,09,20,25.50
2018,08,08,09,21,25.40
2018,08,08,09,22,25.30
2018,08,08,09,23,25.30
2018,08,08,09,24,25.30
2018,08,08,09,25,25.30
2018,08,08,09,26,25.40
2018,08,08,09,27,25.40
2018,08,08,09,28,25.50
2018,08,08,09,29,25.60
2018,08,08,09,30,25.70
2018,08,08,09,31,25.80
2018,08,08,09,32,25.90
2018,08,08,09,33,26.00
2018,08,08,09,34,26.10
2018,08,08,09,35,26.20
2018,08,08,09,36,26.30
2018,08,08,09,37,26.40
2018,08,08,09,38,26.50
2018,08,08,09,39,26.60
2018,08,08,09,40,26.70
2018,08,08,09,41,26.80
2018,08,08,09,42,26.90
2018,08,08,09,43,26.90
2018,08,08,09,44,27.00
2018,08,08,09,45,27.00
2018,08,08,09,46,27.10
2018,08,08,09,47,27.10
2018,08,08,09,48,27.10
2018,08,08,09,49,27.10
2018,08,08,09,50,27.20
2018,08,08,09,51,27.10
2018,08,08,09,52,27.10
2018,08,08,09,53,27.00
2018,08,08,09,54,27.00
2018,08,08,09,55,27.00
2018,08,08,09,56,27.00
2018,08,08,09,57,27.10
2018,08,08,09,58,27.10
2018,08,08,09,59,27.10
2018,08,08,10,00,27.00
2018,08,08,10,01,27.10
2018,08,08,10,02,27.10
2018,08,08,10,03,27.10
2018,08,08,10,04,27.20
2018,08,08,10,05,27.20
2018,08,08,10,06,27.20
2018,08,08,10,07,27.20
2018,08,08,10,08,27.20
2018,08,08,10,09,27.20
2018,08,08,10,10,27.10
2018,08,08,10,11,27.00
2018,08,08,10,12,27.00
2018,08,08,10,13,26.90
2018,08,08,10,14,26.90
2018,08,08,10,15,27.00
2018,08,08,10,16,27.10
2018,08,08,10,17,27.10
2018,08,08,10,18,27.20
2018,08,08,10,19,27.30
2018,08,08,10,20,27.40
2018,08,08,10,21,27.50
2018,08,08,10,22,27.50
2018,08,08,10,23,27.60
2018,08,08,10,24,27.70
2018,08,08,10,25,27.60
2018,08,08,10,26,27.60
2018,08,08,10,27,27.50
2018,08,08,10,28,27.50
2018,08,08,10,29,27.40
2018,08,08,10,30,27.40
2018,08,08,10,31,27.30
2018,08,08,10,32,27.40
2018,08,08,10,33,27.40
2018,08,08,10,34,27.50
2018,08,08,10,35,27.50
2018,08,08,10,36,27.60
2018,08,08,10,37,27.80
2018,08,08,10,38,27.80
2018,08,08,10,39,27.80
2018,08,08,10,40,27.60
2018,08,08,10,41,27.50
2018,08,08,10,42,27.40
2018,08,08,10,43,27.50
2018,08,08,10,44,27.60
2018,08,08,10,45,27.70
2018,08,08,10,46,27.70
2018,08,08,10,47,27.60
2018,08,08,10,48,27.50
2018,08,08,10,49,27.40
2018,08,08,10,50,27.30
2018,08,08,10,51,27.30
2018,08,08,10,52,27.30
2018,08,08,10,53,27.30
2018,08,08,10,54,27.50
2018,08,08,10,55,27.60
2018,08,08,10,56,27.60
2018,08,08,10,57,27.70
2018,08,08,10,58,27.90
2018,08,08,10,59,27.90
2018,08,08,11,00,28.10
2018,08,08,11,01,28.10
2018,08,08,11,02,28.20
2018,08,08,11,03,28.30
2018,08,08,11,04,28.40
2018,08,08,11,05,28.50
2018,08,08,11,06,28.60
2018,08,08,11,07,28.60
2018,08,08,11,08,28.60
2018,08,08,11,09,28.60
2018,08,08,11,10,28.50
2018,08,08,11,11,28.40
2018,08,08,11,12,28.50
2018,08,08,11,13,28.60
2018,08,08,11,14,28.60
2018,08,08,11,15,28.60
2018,08,08,11,16,28.50
2018,08,08,11,17,28.50
2018,08,08,11,18,28.60
2018,08,08,11,19,28.50
2018,08,08,11,20,28.40
2018,08,08,11,21,28.40
2018,08,08,11,22,28.50
2018,08,08,11,23,28.50
2018,08,08,11,24,28.60
2018,08,08,11,25,28.50
2018,08,08,11,26,28.40
2018,08,08,11,27,28.40
2018,08,08,11,28,28.30
2018,08,08,11,29,28.30
2018,08,08,11,30,28.40
2018,08,08,11,31,28.40
2018,08,08,11,32,28.40
2018,08,08,11,33,28.40
2018,08,08,11,34,28.50
2018,08,08,11,35,28.50
2018,08,08,11,36,28.60
2018,08,08,11,37,28.70
2018,08,08,11,38,28.80
2018,08,08,11,39,28.80
2018,08,08,11,40,28.90
2018,08,08,11,41,28.90
2018,08,08,11,42,29.10
2018,08,08,11,43,29.20
2018,08,08,11,44,29.20
2018,08,08,11,45,29.20
2018,08,08,11,46,29.20
2018,08,08,11,47,29.30
2018,08,08,11,48,29.40
2018,08,08,11,49,29.50
2018,08,08,11,50,29.50
2018,08,08,11,51,29.70
2018,08,08,11,52,29.80
2018,08,08,11,53,29.90
2018,08,08,11,54,29.90
2018,08,08,11,55,29.80
2018,08,08,11,56,29.60
2018,08,08,11,57,29.60
2018,08,08,11,58,29.60
2018,08,08,11,59,29.50
2018,08,08,12,00,29.40
2018,08,08,12,01,29.30
2018,08,08,12,02,29.30
2018,08,08,12,03,29.30
2018,08,08,12,04,29.40
2018,08,08,12,05,29.30
2018,08,08,12,06,29.30
2018,08,08,12,07,29.40
2018,08,08,12,08,29.20
2018,08,08,12,09,29.00
2018,08,08,12,10,28.90
2018,08,08,12,11,28.80
2018,08,08,12,12,28.80
2018,08,08,12,13,28.90
2018,08,08,12,14,29.00
2018,08,08,12,15,29.00
2018,08,08,12,16,28.90
2018,08,08,12,17,28.80
2018,08,08,12,18,28.80
2018,08,08,12,19,28.90
2018,08,08,12,20,29.00
2018,08,08,12,21,29.00
2018,08,08,12,22,28.90
2018,08,08,12,23,28.90
2018,08,08,12,24,28.90
2018,08,08,12,25,28.90
2018,08,08,12,26,28.90
2018,08,08,12,27,28.90
2018,08,08,12,28,29.00
2018,08,08,12,29,28.90
2018,08,08,12,30,29.00
2018,08,08,12,31,29.10
2018,08,08,12,32,29.20
2018,08,08,12,33,29.20
2018,08,08,12,34,29.30
2018,08,08,12,35,29.30
2018,08,08,12,36,29.20
2018,08,08,12,37,29.20
2018,08,08,12,38,29.20
2018,08,08,12,39,29.30
2018,08,08,12,40,29.30
2018,08,08,12,41,29.30
2018,08,08,12,42,29.30
2018,08,08,12,43,29.40
2018,08,08,12,44,29.40
2018,08,08,12,45,29.50
2018,08,08,12,46,29.50
2018,08,08,12,47,29.60
2018,08,08,12,48,29.80
2018,08,08,12,49,29.80
2018,08,08,12,50,29.80
2018,08,08,12,51,29.60
2018,08,08,12,52,29.50
2018,08,08,12,53,29.40
2018,08,08,12,54,29.30
2018,08,08,12,55,29.20
2018,08,08,12,56,29.10
2018,08,08,12,57,29.10
2018,08,08,12,58,29.10
2018,08,08,12,59,29.10
2018,08,08,13,00,29.00
2018,08,08,13,01,29.00
2018,08,08,13,02,29.00
2018,08,08,13,03,29.10
2018,08,08,13,04,29.20
2018,08,08,13,05,29.30
2018,08,08,13,06,29.40
2018,08,08,13,07,29.50
2018,08,08,13,08,29.40
2018,08,08,13,09,29.40
2018,08,08,13,10,29.40
2018,08,08,13,11,29.40
2018,08,08,13,12,29.40
2018,08,08,13,13,29.30
2018,08,08,13,14,29.20
2018,08,08,13,15,29.10
2018,08,08,13,16,29.10
2018,08,08,13,17,29.10
2018,08,08,13,18,29.20
2018,08,08,13,19,29.20
2018,08,08,13,20,29.30
2018,08,08,13,21,29.30
2018,08,08,13,22,29.30
2018,08,08,13,23,29.30
2018,08,08,13,24,29.40
2018,08,08,13,25,29.50
2018,08,08,13,26,29.50
2018,08,08,13,27,29.50
2018,08,08,13,28,29.50
2018,08,08,13,29,29.40
2018,08,08,13,30,29.40
2018,08,08,13,31,29.40
2018,08,08,13,32,29.40
2018,08,08,13,33,29.30
2018,08,08,13,34,29.20
2018,08,08,13,35,29.10
2018,08,08,13,36,29.10
2018,08,08,13,37,29.20
2018,08,08,13,38,29.30
2018,08,08,13,39,29.20
2018,08,08,13,40,29.20
2018,08,08,13,41,29.20
2018,08,08,13,42,29.30
2018,08,08,13,43,29.50
2018,08,08,13,44,29.60
2018,08,08,13,45,29.60
2018,08,08,13,46,29.60
2018,08,08,13,47,29.60
2018,08,08,13,48,29.50
2018,08,08,13,49,29.50
2018,08,08,13,50,29.50
2018,08,08,13,51,29.50
2018,08,08,13,52,29.40
2018,08,08,13,53,29.40
2018,08,08,13,54,29.40
2018,08,08,13,55,29.50
2018,08,08,13,56,29.60
2018,08,08,13,57,29.70
2018,08,08,13,58,29.80
2018,08,08,13,59,29.80
2018,08,08,14,00,29.80
2018,08,08,14,01,29.80
2018,08,08,14,02,29.80
2018,08,08,14,03,29.90
2018,08,08,14,04,29.90
2018,08,08,14,05,29.70
2018,08,08,14,06,29.70
2018,08,08,14,07,29.70
2018,08,08,14,08,29.70
2018,08,08,14,09,29.70
2018,08,08,14,10,29.70
2018,08,08,14,11,29.60
2018,08,08,14,12,29.70
2018,08,08,14,13,29.80
2018,08,08,14,14,29.90
2018,08,08,14,15,30.00
2018,08,08,14,16,30.00
2018,08,08,14,17,30.10
2018,08,08,14,18,30.00
2018,08,08,14,19,29.90
2018,08,08,14,20,29.90
2018,08,08,14,21,29.80
2018,08,08,14,22,29.80
2018,08,08,14,23,29.90
2018,08,08,14,24,30.00
2018,08,08,14,25,30.10
2018,08,08,14,26,30.20
2018,08,08,14,27,30.20
2018,08,08,14,28,30.20
2018,08,08,14,29,30.10
2018,08,08,14,30,30.10
2018,08,08,14,31,30.10
2018,08,08,14,32,30.20
2018,08,08,14,33,30.30
2018,08,08,14,34,30.40
2018,08,08,14,35,30.50
2018,08,08,14,36,30.60
2018,08,08,14,37,30.70
2018,08,08,14,38,30.80
2018,08,08,14,39,30.80
2018,08,08,14,40,30.90
2018,08,08,14,41,30.90
2018,08,08,14,42,31.10
2018,08,08,14,43,31.20
2018,08,08,14,44,31.30
2018,08,08,14,45,31.40
2018,08,08,14,46,31.40
2018,08,08,14,47,31.40
2018,08,08,14,48,31.20
2018,08,08,14,49,31.00
2018,08,08,14,50,30.80
2018,08,08,14,51,30.70
2018,08,08,14,52,30.60
2018,08,08,14,53,30.70
2018,08,08,14,54,30.80
2018,08,08,14,55,30.80
2018,08,08,14,56,30.90
2018,08,08,14,57,30.90
2018,08,08,14,58,30.80
2018,08,08,14,59,30.70
2018,08,08,15,00,30.70
2018,08,08,15,01,30.70
2018,08,08,15,02,30.60
2018,08,08,15,03,30.60
2018,08,08,15,04,30.70
2018,08,08,15,05,30.80
2018,08,08,15,06,30.90
2018,08,08,15,07,31.00
2018,08,08,15,08,31.10
2018,08,08,15,09,31.10
2018,08,08,15,10,31.10
2018,08,08,15,11,31.00
2018,08,08,15,12,31.00
2018,08,08,15,13,30.90
2018,08,08,15,14,30.90
2018,08,08,15,15,30.90
2018,08,08,15,16,30.90
2018,08,08,15,17,30.80
2018,08,08,15,18,30.80
2018,08,08,15,19,30.80
2018,08,08,15,20,30.80
2018,08,08,15,21,30.80
2018,08,08,15,22,30.70
2018,08,08,15,23,30.80
2018,08,08,15,24,30.80
2018,08,08,15,25,30.90
2018,08,08,15,26,30.90
2018,08,08,15,27,30.90
2018,08,08,15,28,30.90
2018,08,08,15,29,30.90
2018,08,08,15,30,30.90
2018,08,08,15,31,30.90
2018,08,08,15,32,30.90
2018,08,08,15,33,30.90
2018,08,08,15,34,30.90
2018,08,08,15,35,30.90
2018,08,08,15,36,30.90
2018,08,08,15,37,30.80
2018,08,08,15,38,30.80
2018,08,08,15,39,30.80
2018,08,08,15,40,30.80
2018,08,08,15,41,30.80
2018,08,08,15,42,30.90
2018,08,08,15,43,31.10
2018,08,08,15,44,31.10
2018,08,08,15,45,31.10
2018,08,08,15,46,31.10
2018,08,08,15,47,31.20
2018,08,08,15,48,31.20
2018,08,08,15,49,31.20
2018,08,08,15,50,31.20
2018,08,08,15,51,31.20
2018,08,08,15,52,31.20
2018,08,08,15,53,31.20
2018,08,08,15,54,31.30
2018,08,08,15,55,31.30
2018,08,08,15,56,31.30
2018,08,08,15,57,31.30
2018,08,08,15,58,31.20
2018,08,08,15,59,31.10
2018,08,08,16,00,31.10
2018,08,08,16,01,31.10
2018,08,08,16,02,31.10
2018,08,08,16,03,31.10
2018,08,08,16,04,31.10
2018,08,08,16,05,31.10
2018,08,08,16,06,31.10
2018,08,08,16,07,31.10
2018,08,08,16,08,31.20
2018,08,08,16,09,31.20
2018,08,08,16,10,31.30
2018,08,08,16,11,31.30
2018,08,08,16,12,31.30
2018,08,08,16,13,31.40
2018,08,08,16,14,31.50
2018,08,08,16,15,31.60
2018,08,08,16,16,31.60
2018,08,08,16,17,31.70
2018,08,08,16,18,31.70
2018,08,08,16,19,31.60
2018,08,08,16,20,31.60
2018,08,08,16,21,31.60
2018,08,08,16,22,31.60
2018,08,08,16,23,31.60
2018,08,08,16,24,31.60
2018,08,08,16,25,31.50
2018,08,08,16,26,31.40
2018,08,08,16,27,31.30
2018,08,08,16,28,31.40
2018,08,08,16,29,31.50
2018,08,08,16,30,31.60
2018,08,08,16,31,31.70
2018,08,08,16,32,31.80
2018,08,08,16,33,31.90
2018,08,08,16,34,31.90
2018,08,08,16,35,31.90
2018,08,08,16,36,31.80
2018,08,08,16,37,31.70
2018,08,08,16,38,31.70
2018,08,08,16,39,31.70
2018,08,08,16,40,31.70
2018,08,08,16,41,31.60
2018,08,08,16,42,31.60
2018,08,08,16,43,31.50
2018,08,08,16,44,31.50
2018,08,08,16,45,31.50
2018,08,08,16,46,31.60
2018,08,08,16,47,31.60
2018,08,08,16,48,31.60
2018,08,08,16,49,31.70
2018,08,08,16,50,31.80
2018,08,08,16,51,31.80
2018,08,08,16,52,31.80
2018,08,08,16,53,31.90
2018,08,08,16,54,31.90
2018,08,08,16,55,31.90
2018,08,08,16,56,31.80
2018,08,08,16,57,31.80
2018,08,08,16,58,31.80
2018,08,08,16,59,31.80
2018,08,08,17,00,31.80
2018,08,08,17,01,31.80
2018,08,08,17,02,31.70
2018,08,08,17,03,31.70
2018,08,08,17,04,31.70
2018,08,08,17,05,31.70
2018,08,08,17,06,31.60
2018,08,08,17,07,31.50
2018,08,08,17,08,31.40
2018,08,08,17,09,31.40
2018,08,08,17,10,31.30
2018,08,08,17,11,31.30
2018,08,08,17,12,31.30
2018,08,08,17,13,31.40
2018,08,08,17,14,31.40
2018,08,08,17,15,31.40
2018,08,08,17,16,31.40
2018,08,08,17,17,31.30
2018,08,08,17,18,31.30
2018,08,08,17,19,31.40